User: anonymous   Login
Location: Unspecified
(0.0000°N, 0.0000°E)
Time: 18:17:05
(UTC+00:00)
Language:

GOSAT - Orbit

View from above orbital plane
View from above orbital plane
View from above satellite
View from above satellite

Ground track
Ground track

The orbit data is extracted from the following two-line orbital elements,

1 33492U 09002A   17172.79856854 -.00000156 +00000-0 -18916-4 0  9995
2 33492 098.1230 284.3933 0001147 087.6064 272.5267 14.67520363450504
Epoch (UTC): 21 June 2017 19:09:56
Eccentricity: 0.0001147
inclination: 98.1230°
perigee height: 668 km
apogee height: 670 km
right ascension of ascending node: 284.3933°
argument of perigee: 87.6064°
revolutions per day: 14.67520363
mean anomaly at epoch: 272.5267°
orbit number at epoch: 45050

The dashed part of the orbit path shows where the satellite is in the earth's shadow,  

DLR